Mmabatho, South Africa

1:44 AM SAST on December 05, 2016 (GMT +0200)
Mmabatho

Weather History for FAMM - October, 2012

Change the Weather History Date:

Friday, October 12, 2012

  Actual Average Record
Temperature  
Mean Temperature 66 °F -  
Max Temperature 76 °F - - ()
Min Temperature 55 °F - - ()
Cooling Degree Days 1    
Growing Degree Days 16 (Base 50)    
Moisture  
Dew Point 52 °F    
Average Humidity 65    
Maximum Humidity 82    
Minimum Humidity 36    
Precipitation  
Precipitation 0.03 in - - ()
Sea Level Pressure  
Sea Level Pressure 30.13 in    
Wind  
Wind Speed 11 mph ()    
Max Wind Speed 22 mph    
Max Gust Speed 32 mph    
Visibility 9.7 miles    
Events Rain , Thunderstorm    
T = Trace of Precipitation, MM = Missing Value Source: Averaged Metar Reports

Daily Weather History Graph

Daily Weather History Graph

Search for Another Location

Airport or City:

Trip Planner

Search our weather history database for the weather conditions in past years. The results will help you decide how hot, cold, wet, or windy it might be!

Date:

Astronomy

Oct. 12, 2012 Rise Set
Actual Time 5:45 AM SAST 6:22 PM SAST
Civil Twilight 5:22 AM SAST 6:46 PM SAST
Nautical Twilight 4:55 AM SAST 7:13 PM SAST
Astronomical Twilight 4:27 AM SAST 7:41 PM SAST
Moon 3:18 AM SAST (10/12) 3:24 PM SAST (10/12)
Length of Visible Light 13h 23m
Length of Day
12h 37m
Waning Crescent, 12% of the Moon is Illuminated
Oct 12
Waning Crescent
Oct 15
New
Oct 22
First Quarter
Oct 29
Full
Nov 7
Last Quarter

Hourly Weather History & Observations

Time (SAST) Temp. Dew Point Humidity Pressure Visibility Wind Dir Wind Speed Gust Speed Precip Events Conditions
12:00 AM 66.2 °F 50.0 °F 56% 30.09 in - North 4.6 mph - N/A   Unknown
1:00 AM 64.4 °F 50.0 °F 59% 30.09 in - NE 2.3 mph - N/A   Unknown
2:00 AM 62 °F 50 °F 54%  in - NE 3.5 mph - -  
2:00 AM 60.8 °F 48.2 °F 63% 30.06 in - NE 3.5 mph - N/A   Unknown
3:00 AM 57.2 °F 48.2 °F 72% 30.09 in - East 3.5 mph - N/A   Unknown
4:00 AM 60.8 °F 50.0 °F 68% 30.12 in - NNE 9.2 mph - N/A   Unknown
5:00 AM 61 °F 53 °F 67%  in 12 mi NNE 16.1 mph - -   Scattered Clouds
5:00 AM 60.8 °F 51.8 °F 72% 30.12 in - NNE 16.1 mph - N/A   Clear
6:00 AM 59.0 °F 51.8 °F 77% 30.12 in - NNE 12.7 mph - N/A   Clear
7:00 AM 59.0 °F 51.8 °F 77% 30.18 in 6.2 mi NNE 12.7 mph - N/A   Mostly Cloudy
8:00 AM 61 °F 53 °F 67%  in 12 mi NNE 15.0 mph - -   Scattered Clouds
8:00 AM 59.0 °F 51.8 °F 77% 30.18 in 6.2 mi NNE 13.8 mph - N/A   Mostly Cloudy
9:00 AM 60.8 °F 51.8 °F 72% 30.21 in - North 15.0 mph - N/A   Clear
10:00 AM 69.8 °F 51.8 °F 53% 30.18 in - North 16.1 mph - N/A   Clear
11:00 AM 71 °F 54 °F 44%  in 19 mi NNE 17.3 mph - -   Scattered Clouds
11:00 AM 69.8 °F 53.6 °F 56% 30.18 in 6.2 mi NNE 17.3 mph - N/A   Partly Cloudy
12:00 PM 71.6 °F 50.0 °F 46% 30.15 in 6.2 mi NNE 20.7 mph - N/A   Partly Cloudy
1:00 PM 73.4 °F 51.8 °F 47% 30.12 in 6.2 mi NNE 20.7 mph 32.2 mph N/A   Scattered Clouds
2:00 PM 74 °F 53 °F 36%  in 19 mi NNE 20.7 mph - -   Scattered Clouds
2:00 PM 73.4 °F 51.8 °F 47% 30.09 in 6.2 mi NNE 20.7 mph - N/A   Partly Cloudy
3:00 PM 71.6 °F 51.8 °F 50% 30.06 in 6.2 mi NNE 17.3 mph - N/A   Partly Cloudy
4:00 PM 69.8 °F 53.6 °F 56% 30.12 in 5.6 mi NNE 9.2 mph - N/A Rain , Thunderstorm Thunderstorms and Rain
5:00 PM 63 °F 56 °F 70%  in 19 mi NNE 21.9 mph - - Thunderstorm Light Thunderstorm
5:00 PM 62.6 °F 55.4 °F 77% 30.09 in 6.2 mi NNE 21.9 mph - N/A   Scattered Clouds
6:00 PM 62.6 °F 51.8 °F 68% 30.09 in 6.2 mi NNE 20.7 mph - N/A   Scattered Clouds
7:00 PM 60.8 °F 51.8 °F 72% 30.15 in 6.2 mi NE 10.4 mph - N/A   Partly Cloudy
8:00 PM 59 °F 53 °F 73%  in 19 mi NE 17.3 mph - -   Scattered Clouds
8:00 PM 59.0 °F 51.8 °F 77% 30.15 in 6.2 mi NE 16.1 mph - N/A   Partly Cloudy
9:00 PM 57.2 °F 50.0 °F 77% 30.15 in - NNE 16.1 mph - N/A   Unknown
10:00 PM 57.2 °F 50.0 °F 77% 30.18 in - NE 12.7 mph - N/A   Unknown
11:00 PM 56 °F 51 °F 79%  in - NNE 15.0 mph - -  
11:00 PM 55.4 °F 50.0 °F 82% 30.18 in - NNE 13.8 mph - N/A   Unknown